Starlink 11611

operational
NORAD ID: 63138 Int'l Des: 2025-043 Owner: SPXS Country: US Constellation: starlink
LEOCIRCULAR

Starlink 11611について

説明を読み込み中...

リアルタイム位置

3D地球を読み込み中...

次回通過

高度履歴

Altitude vs Time

uPlot chart will show altitude changes over time

軌道要素

1 63138U 25043G 25304.17222583 .00123404 00000-0 94759-3 0 9990
2 63138 42.9989 311.2926 0000725 205.5158 154.5674 15.70925729 39100
Epoch: Oct 31, 2025 • Age: 14 hours

現在のステータス

高度 359.2 km
速度 7.70 km/s
衛星直下点 42.80°N, 75.09°E
打ち上げ日 Mar 3, 2025
運用期間 0.6 years
タイプ internet

技術仕様

分類 Payload
質量 960.00 kg
乾燥質量 910.00 kg
総質量 960.00 kg
長さ 0.30 m
直径 4.10 m
スパン 29.00 m
形状 Box + pan
製造者 SPXS
バスタイプ Starlink V2MD
フェーズステータス In Orbit
所有者/国 SPXS/US

大規模コンステレーション

Loading constellations...